This demonstration page uses our WeatherBlox Daily Observations layout. Learn more.

Left ArrowRight Arrow

38.20091, -84.87328

Hourly Observations for April 18, 2020

Temp ( °F °C ) Dew Point ( °F °C ) Humidity (%) Winds ( mph kmh ) Pressure ( in mb ) Visibility ( mi km ) Precip ( " mm )
12:53 am 00:53 Cloudy with Light Rain 45 7.2 41 5 86 86 NNW 8 13 29.93 1014 6 10 0.04 1.02
1:45 am 01:45 Cloudy with Mist and Fog 42 5.6 39 3.9 89 89 NW 13 20 29.98 1015 4 6 0.01 0.25
1:53 am 01:53 Cloudy with Mist and Fog 42 5.6 39 3.9 89 89 NW 14 22 29.99 1016 5 8 0.01 0.25
2:21 am 02:21 Cloudy with Mist and Fog 41 5 37 2.8 86 86 NW 9 15 29.99 1015 6 10 0.00 0.00
2:53 am 02:53 Cloudy 40 4.4 37 2.8 89 89 NNW 9 15 29.96 1015 7 11 0.00 0.00
3:39 am 03:39 Cloudy 39 3.9 36 2.2 89 89 NNW 9 15 30.00 1016 9 14 0.00 0.00
3:53 am 03:53 Cloudy 39 3.9 35 1.7 86 86 NNW 12 19 29.98 1015 10 16 0.00 0.00
4:53 am 04:53 Cloudy 38 3.3 33 0.6 83 83 NNW 14 22 30.02 1017 10 16 0.00 0.00
5:25 am 05:25 Cloudy 38 3.3 32 0 79 79 NNW 14 22 30.07 1018 10 16 0.00 0.00
5:53 am 05:53 Cloudy 37 2.8 31 -0.6 79 79 NW 8 13 30.06 1018 10 16 0.00 0.00
6:53 am 06:53 Cloudy 38 3.3 29 -1.7 70 70 NNW 8 13 30.09 1019 10 16 0.00 0.00
7:53 am 07:53 Cloudy 38 3.3 30 -1.1 73 73 NNW 7 11 30.11 1020 10 16 0.00 0.00
8:20 am 08:20 Partly Cloudy 38 3.3 30 -1.1 73 73 NNW 7 11 30.15 1021 10 16 0.00 0.00
8:53 am 08:53 Mostly Sunny 40 4.4 30 -1.1 68 68 NNW 10 17 30.13 1020 10 16 0.00 0.00
9:53 am 09:53 Partly Cloudy 42 5.6 31 -0.6 65 65 NW 7 11 30.16 1021 10 16 0.00 0.00
10:03 am 10:03 Mostly Cloudy 42 5.6 31 -0.6 65 65 NNW 8 13 30.17 1022 10 16 0.00 0.00
10:12 am 10:12 Mostly Sunny 42 5.6 30 -1.1 62 62 N 8 13 30.17 1022 10 16 0.00 0.00
10:49 am 10:49 Mostly Cloudy 43 6 30 -1 61 61 NW 9 15 30.16 1021 10 16 0.00 0.00
10:53 am 10:53 Mostly Cloudy 42 5.6 30 -1.1 62 62 NNW 7 11 30.15 1021 10 16 0.00 0.00
11:37 am 11:37 Mostly Cloudy 45 7.2 31 -0.6 58 58 VRB 3 6 30.17 1022 10 16 0.00 0.00
11:53 am 11:53 Mostly Cloudy 46 7.8 32 0 58 58 VRB 3 6 30.15 1021 10 16 0.00 0.00
12:53 pm 12:53 Cloudy 49 9.4 31 -0.6 50 50 WNW 5 7 30.14 1021 10 16 0.00 0.00
1:53 pm 13:53 Mostly Cloudy 51 10.6 32 0 48 48 SSW 6 9 30.11 1020 10 16 0.00 0.00
2:53 pm 14:53 Partly Cloudy 52 11.1 31 -0.6 45 45 VRB 5 7 30.08 1019 10 16 0.00 0.00
3:53 pm 15:53 Sunny 55 12.8 34 1.1 45 45 SSW 6 9 30.05 1018 10 16 0.00 0.00
4:53 pm 16:53 Sunny 55 12.8 31 -0.6 40 40 SSW 7 11 30.01 1016 10 16 0.00 0.00
5:53 pm 17:53 Sunny 55 12.8 33 0.6 44 44 S 8 13 30.00 1016 10 16 0.00 0.00
6:53 pm 18:53 Sunny 54 12.2 33 0.6 45 45 S 9 15 30.00 1016 10 16 0.00 0.00
7:53 pm 19:53 Sunny 52 11.1 33 0.6 49 49 SSW 8 13 29.99 1016 10 16 0.00 0.00
8:53 pm 20:53 Clear 46 7.8 33 0.6 61 61 SSW 5 7 29.99 1016 10 16 0.00 0.00
9:53 pm 21:53 Clear 44 6.7 33 0.6 65 65 Calm 30.00 1016 10 16 0.00 0.00
10:53 pm 22:53 Clear 45 7.2 33 0.6 63 63 S 6 9 30.00 1016 10 16 0.00 0.00
11:53 pm 23:53 Clear 40 4.4 32 0 73 73 S 3 6 29.99 1016 10 16 0.00 0.00

Powered by AerisWeather